Novato, CA

3:19 PM PST on November 19, 2019 (GMT -0800)
Gnoss

Weather History for KDVO - September, 2019

Change the Weather History Date:

Saturday, September 14, 2019

  Actual Average (KAPC) Record (KAPC)
Temperature  
Mean Temperature 73 °F -  
Max Temperature 95 °F 80 °F 89 °F (2004)
Min Temperature 51 °F 52 °F 45 °F (2018)
Cooling Degree Days 8    
Growing Degree Days 23 (Base 50)    
Moisture  
Dew Point 51 °F    
Average Humidity 59    
Maximum Humidity 94    
Minimum Humidity 12    
Precipitation  
Precipitation 0.00 in - - ()
Sea Level Pressure  
Sea Level Pressure 29.90 in    
Wind  
Wind Speed 2 mph ()    
Max Wind Speed 16 mph    
Max Gust Speed 20 mph    
Visibility 9.6 miles    
Events      
Averages and records for this station are not official NWS values.
T = Trace of Precipitation, MM = Missing Value Source: Averaged Metar Reports

Daily Weather History Graph

Daily Weather History Graph

Search for Another Location

Airport or City:

Astronomy

Sep. 14, 2019 Rise Set
Actual Time 6:51 AM PDT 7:19 PM PDT
Civil Twilight 6:24 AM PDT 7:46 PM PDT
Nautical Twilight 5:53 AM PDT 8:17 PM PDT
Astronomical Twilight 5:21 AM PDT 8:49 PM PDT
Moon 8:03 PM PDT (9/14) 7:10 AM PDT (9/14)
Length of Visible Light 13h 21m
Length of Day
12h 28m
Full, 100% of the Moon is Illuminated
Sep 14
Full
Sep 21
Last Quarter
Sep 28
New
Oct 5
First Quarter
Oct 13
Full

Hourly Weather History & Observations

Time (PDT) Temp. Heat Index Dew Point Humidity Pressure Visibility Wind Dir Wind Speed Gust Speed Precip Events Conditions
12:15 AM 62.6 °F - 50.0 °F 63% 29.93 in 10.0 mi Calm Calm - N/A   Clear
12:55 AM 62.6 °F - 51.8 °F 68% 29.93 in 10.0 mi Calm Calm - N/A   Clear
1:15 AM 62.6 °F - 50.0 °F 63% 29.93 in 10.0 mi Calm Calm - N/A   Clear
1:35 AM 60.8 °F - 51.8 °F 72% 29.93 in 10.0 mi Calm Calm - N/A   Clear
1:55 AM 60.8 °F - 50.0 °F 68% 29.93 in 10.0 mi Calm Calm - N/A   Clear
2:15 AM 57.2 °F - 46.4 °F 67% 29.92 in 10.0 mi Calm Calm - N/A   Clear
2:35 AM 57.2 °F - 48.2 °F 72% 29.92 in 10.0 mi Calm Calm - N/A   Clear
2:55 AM 55.4 °F - 48.2 °F 77% 29.92 in 10.0 mi Calm Calm - N/A   Clear
3:15 AM 55.4 °F - 48.2 °F 77% 29.91 in 10.0 mi Calm Calm - N/A   Clear
3:35 AM 53.6 °F - 48.2 °F 82% 29.92 in 10.0 mi Calm Calm - N/A   Clear
3:55 AM 55.4 °F - 48.2 °F 77% 29.91 in 10.0 mi Calm Calm - N/A   Clear
4:15 AM 57.2 °F - 50.0 °F 77% 29.91 in 10.0 mi Calm Calm - N/A   Clear
4:35 AM 57.2 °F - 50.0 °F 77% 29.91 in 10.0 mi North 3.5 mph - N/A   Clear
4:55 AM 53.6 °F - 50.0 °F 88% 29.92 in 10.0 mi Calm Calm - N/A   Clear
5:15 AM 55.4 °F - 50.0 °F 82% 29.92 in 10.0 mi Calm Calm - N/A   Clear
5:35 AM 53.6 °F - 48.2 °F 82% 29.92 in 10.0 mi Calm Calm - N/A   Clear
5:55 AM 53.6 °F - 50.0 °F 88% 29.93 in 10.0 mi NNW 3.5 mph - N/A   Clear
6:15 AM 51.8 °F - 48.2 °F 88% 29.93 in 10.0 mi NNW 3.5 mph - N/A   Clear
6:35 AM 55.4 °F - 50.0 °F 82% 29.93 in 10.0 mi Calm Calm - N/A   Clear
6:55 AM 53.6 °F - 48.2 °F 82% 29.93 in 10.0 mi Calm Calm - N/A   Clear
7:15 AM 53.6 °F - 48.2 °F 82% 29.93 in 10.0 mi Calm Calm - N/A   Clear
7:35 AM 55.4 °F - 50.0 °F 82% 29.94 in 10.0 mi Calm Calm - N/A   Clear
7:55 AM 55.4 °F - 50.0 °F 82% 29.94 in 10.0 mi Calm Calm - N/A   Clear
8:15 AM 59.0 °F - 51.8 °F 77% 29.95 in 10.0 mi Calm Calm - N/A   Clear
8:35 AM 60.8 °F - 51.8 °F 72% 29.95 in 10.0 mi Calm Calm - N/A   Clear
8:55 AM 64.4 °F - 51.8 °F 64% 29.95 in 10.0 mi Calm Calm - N/A   Clear
9:15 AM 69.8 °F - 51.8 °F 53% 29.96 in 10.0 mi Calm Calm - N/A   Clear
9:35 AM 69.8 °F - 51.8 °F 53% 29.96 in 10.0 mi Calm Calm - N/A   Clear
9:55 AM 73.4 °F - 51.8 °F 47% 29.96 in 10.0 mi Calm Calm - N/A   Clear
10:15 AM 75.2 °F - 51.8 °F 44% 29.95 in 10.0 mi Calm Calm - N/A   Clear
10:35 AM 77.0 °F - 51.8 °F 41% 29.95 in 10.0 mi Calm Calm - N/A   Clear
10:55 AM 78.8 °F - 51.8 °F 39% 29.95 in 10.0 mi Calm Calm - N/A   Clear
11:15 AM 80.6 °F - 51.8 °F 37% 29.95 in 10.0 mi Calm Calm - N/A   Clear
11:35 AM 82.4 °F - 51.8 °F 35% 29.94 in 9.0 mi Calm Calm - N/A   Clear
11:55 AM 84.2 °F 82.8 °F 53.6 °F 35% 29.94 in 4.0 mi Variable 4.6 mph - N/A   Haze
12:15 PM 84.2 °F 83.5 °F 57.2 °F 40% 29.93 in 6.0 mi ESE 6.9 mph - N/A   Haze
12:35 PM 84.2 °F 83.8 °F 59.0 °F 42% 29.92 in 9.0 mi ESE 9.2 mph - N/A   Clear
12:55 PM 84.2 °F 83.5 °F 57.2 °F 40% 29.92 in 9.0 mi SE 8.1 mph - N/A   Clear
1:15 PM 86.0 °F 84.5 °F 55.4 °F 35% 29.91 in 8.0 mi Variable 5.8 mph - N/A   Clear
1:35 PM 87.8 °F 86.5 °F 57.2 °F 35% 29.90 in 7.0 mi SE 5.8 mph - N/A   Clear
1:55 PM 87.8 °F 86.5 °F 57.2 °F 35% 29.89 in 9.0 mi ESE 8.1 mph - N/A   Clear
2:15 PM 89.6 °F 88.1 °F 57.2 °F 33% 29.89 in 7.0 mi ESE 8.1 mph - N/A   Clear
2:35 PM 89.6 °F 88.1 °F 57.2 °F 33% 29.88 in 9.0 mi ESE 5.8 mph - N/A   Clear
2:55 PM 91.4 °F 89.9 °F 57.2 °F 31% 29.87 in 7.0 mi SE 5.8 mph - N/A   Clear
3:15 PM 95.0 °F - 33.8 °F 12% 29.86 in 10.0 mi SSW 16.1 mph - N/A   Clear
3:35 PM 93.2 °F - 51.8 °F 24% 29.87 in 10.0 mi Variable 6.9 mph 19.6 mph N/A   Clear
3:55 PM 91.4 °F - 50.0 °F 24% 29.86 in 10.0 mi East 5.8 mph - N/A   Clear
4:15 PM 91.4 °F - 41.0 °F 17% 29.86 in 10.0 mi SW 13.8 mph - N/A   Clear
4:35 PM 89.6 °F - 46.4 °F 22% 29.86 in 10.0 mi SW 16.1 mph - N/A   Clear
4:55 PM 84.2 °F - 51.8 °F 33% 29.86 in 10.0 mi SW 11.5 mph 18.4 mph N/A   Clear
5:15 PM 82.4 °F - 50.0 °F 32% 29.85 in 10.0 mi SW 16.1 mph - N/A   Clear
5:35 PM 82.4 °F - 51.8 °F 35% 29.86 in 10.0 mi SW 6.9 mph 16.1 mph N/A   Clear
5:55 PM 80.6 °F - 51.8 °F 37% 29.86 in 10.0 mi Variable 4.6 mph 15.0 mph N/A   Clear
6:15 PM 78.8 °F - 51.8 °F 39% 29.86 in 10.0 mi Calm Calm - N/A   Clear
6:35 PM 77.0 °F - 51.8 °F 41% 29.86 in 10.0 mi Variable 4.6 mph - N/A   Clear
6:55 PM 73.4 °F - 51.8 °F 47% 29.86 in 10.0 mi ESE 4.6 mph - N/A   Clear
7:15 PM 69.8 °F - 53.6 °F 56% 29.85 in 10.0 mi SE 3.5 mph - N/A   Clear
7:35 PM 68.0 °F - 53.6 °F 60% 29.86 in 10.0 mi SSE 4.6 mph - N/A   Clear
7:55 PM 66.2 °F - 51.8 °F 60% 29.86 in 10.0 mi Calm Calm - N/A   Clear
8:15 PM 64.4 °F - 53.6 °F 68% 29.86 in 10.0 mi East 5.8 mph - N/A   Clear
8:35 PM 62.6 °F - 51.8 °F 68% 29.87 in 10.0 mi ENE 6.9 mph - N/A   Clear
8:55 PM 60.8 °F - 51.8 °F 72% 29.87 in 10.0 mi NE 4.6 mph - N/A   Clear
9:15 PM 59.0 °F - 51.8 °F 77% 29.88 in 10.0 mi NE 4.6 mph - N/A   Clear
9:35 PM 57.2 °F - 51.8 °F 82% 29.88 in 10.0 mi Calm Calm - N/A   Clear
9:55 PM 59.0 °F - 51.8 °F 77% 29.88 in 10.0 mi Calm Calm - N/A   Clear
10:15 PM 55.4 °F - 50.0 °F 82% 29.88 in 10.0 mi Calm Calm - N/A   Clear
10:35 PM 55.4 °F - 50.0 °F 82% 29.88 in 10.0 mi ENE 5.8 mph - N/A   Clear
10:55 PM 53.6 °F - 50.0 °F 88% 29.88 in 10.0 mi Calm Calm - N/A   Clear
11:15 PM 55.4 °F - 51.8 °F 88% 29.88 in 10.0 mi Calm Calm - N/A   Clear
11:35 PM 53.6 °F - 51.8 °F 94% 29.88 in 10.0 mi Calm Calm - N/A   Clear
11:55 PM 55.4 °F - 51.8 °F 88% 29.88 in 10.0 mi Calm Calm - N/A   Clear